Home > Weather > Saint John's > Past weeks

Flag for Antigua and Barbuda Past Weather in Saint John's, Antigua and Barbuda — Yesterday and Last 2 Weeks

Now
79 °F

Passing clouds.


Feels Like: 82 °F
Forecast: 80 / 85 °F
Wind: 8 mph from East

Location: Vc Bird International Antigua Airport

Current Time: Jun 27, 2016 at 5:36:48 AM

Latest Report: Jun 27, 2016 at 5:00 AM


Visibility: N/A

Pressure: 30.01 "Hg

Humidity: 84%

Dew Point: 73 °F

Location of Saint John'sLocation

Past Weather in Saint John's — Graph

°F

Saint John's Temperature Yesterday

Maximum temperature yesterday: 82 °F (at 8:00 AM)
Minimum temperature yesterday: 77 °F (at 12:00 PM)
Average temperature yesterday: 80 °F

High & Low Weather Summary for the Past Weeks

 TemperatureHumidityPressure
High88 °F (Jun 13, 12:00 PM)94% (Jun 19, 7:00 PM)30.15 "Hg (Jun 19, 7:00 PM)
Low73 °F (Jun 19, 8:00 PM)59% (Jun 16, 11:00 AM)29.98 "Hg (Jun 25, 2:00 PM)
Average82 °F75%30.06 "Hg
* Reported Jun 12 4:00 AM — Jun 27 4:00 AM, Saint John's, Weather by CustomWeather, © 2016

Note: Actual official high and low records may vary slightly from our data, if they occured in-between our weather recording intervals... More about our weather records

Advertising

Saint John's Weather History for the Previous 24 Hours

Scroll right to see more
 ConditionsComfort  
Time TempWeatherWind HumidityBarometerVisibility
4:00 AM
Mon, Jun 27
79 °FPassing clouds.5 mph84%29.98 "HgN/A
3:00 AM79 °FPassing clouds.7 mph84%30.01 "HgN/A
2:00 AM81 °FPassing clouds.9 mph74%30.01 "HgN/A
1:00 AM81 °FPassing clouds.8 mph74%30.01 "HgN/A
12:00 AM81 °FPassing clouds.9 mph79%30.04 "HgN/A
11:00 PM
Sun, Jun 26
81 °FPassing clouds.9 mph79%30.04 "HgN/A
10:00 PM81 °FPassing clouds.7 mph74%30.04 "HgN/A
9:00 PM81 °FPassing clouds.7 mph79%30.04 "HgN/A
8:00 PM81 °FPassing clouds.8 mph79%30.01 "HgN/A
7:00 PM79 °FPassing clouds.7 mph84%30.01 "HgN/A
6:00 PM81 °FScattered clouds.10 mph79%30.01 "HgN/A
5:00 PM81 °FLight rain. Broken clouds.8 mph79%30.01 "HgN/A
4:00 PM77 °FThunderstorms. Broken clouds.3 mph89%30.01 "HgN/A
3:18 PM81 °FThunderstorms. Broken clouds.6 mph79%30.01 "HgN/A
3:00 PM81 °FPartly sunny.10 mph79%30.01 "HgN/A
2:00 PM79 °FBroken clouds.7 mph84%30.01 "HgN/A
1:25 PM79 °FSprinkles. Broken clouds.9 mph89%30.04 "HgN/A
1:00 PM81 °FThunderstorms. Scattered clouds.8 mph79%30.04 "HgN/A
12:45 PM81 °FThunderstorms. Scattered clouds.7 mph79%30.04 "HgN/A
12:00 PM77 °FSprinkles. Broken clouds.9 mph89%30.04 "HgN/A
11:00 AM81 °FSprinkles. Partly sunny.13 mph84%30.04 "HgN/A
10:00 AM82 °FSprinkles. Partly sunny.7 mph74%30.04 "HgN/A
9:00 AM82 °FPartly sunny.9 mph74%30.04 "HgN/A
8:00 AM82 °FScattered clouds.8 mph74%30.04 "HgN/A
7:00 AM81 °FPassing clouds.7 mph79%30.01 "HgN/A
6:00 AM81 °FPassing clouds.7 mph74%30.01 "HgN/A
5:00 AM81 °FPassing clouds.6 mph74%30.01 "HgN/A
Weather by CustomWeather, © 2016

See weather overviewHow to use our weather pages